Location: Saint Louis
(38.6272°N, 90.1978°W)
Time: 18:06:03
(UTC-05:00)

ISS - Pass Details

Date: 10 December 2013
Orbit: 401 x 404 km, 51.6° (Epoch: 23 July)

Event Time Altitude Azimuth Distance (km) Brightness Sun altitude
Rises 18:06:13 0° 215° (SW) 2,318 1.4 -16.4°
Reaches altitude 10° 18:08:22 10° 208° (SSW) 1,459 0.1 -16.8°
Maximum altitude 18:11:28 42° 136° (SE) 593 -2.8 -17.4°
Enters shadow 18:11:41 41° 124° (SE) 600 -2.8 -17.4°
